Погода в Большой Ирбе

Россия / Красноярский край     54°04′52″N   92°56′12″E
темп.,
°C
ветер,
м/с
пор.,
м/с
влажн.,
%
обл.,
%
осадки,
мм/ч
давл.,
гПа
погр.,
м
23 мая, пн
пн2301:00+17ссв2354100 0.0 100650
04:00+16в0157100 0.0 100811
07:00+19юв1155100 0.0 1010102
10:00+14юв0088100 1.7 101549
13:00+15ссв1189100 3.2 1017132
16:00+19з4668100 0.5 1018777
19:00+12зсз3996100 6.8 1021412
22:00+11зсз1296100 1.2 1023134
24 мая, вт
вт2401:00+11юз119495 3.1 102475
04:00+8ю11957 0.1 102513
07:00+11ююв11874 0.1 1025198
10:00+17в226622 0.0 1023737
13:00+21в33510 0.0 10201156
16:00+24в34370 0.0 10171425
19:00+22всв23501 0.0 101699
22:00+16св346411 0.0 101655
25 мая, ср
ср2501:00+13св3475100 0.0 101566
04:00+12всв22785 0.0 101531
07:00+16всв136390 0.0 1014163
10:00+22вюв2342100 0.0 1013588
13:00+27ссв0132100 0.0 10111113
16:00+28сз1230100 0.0 10101518
19:00+23сз2652100 0.0 1010173
22:00+17ссз2260100 0.0 101134
26 мая, чт
чт2601:00+14ссз2268100 0.0 101230
04:00+12ссз1171100 0.0 101313
07:00+15с1261100 0.0 1014132
10:00+22сз24422 0.0 10131236
13:00+25сз45334 0.0 10122430
16:00+24ссз65341 0.0 10112117
19:00+20с47430 0.0 1011723
22:00+14ссв39530 0.0 1012244
27 мая, пт
пт2701:00+10с22660 0.0 101221
04:00+8св117426 0.0 101110
07:00+12ссв1259100 0.0 1011194
10:00+19ссз243699 0.0 10101370
13:00+23ссз35232 0.0 10082788
16:00+23с46218 0.0 10093204
19:00+20св47312 0.0 1010805
22:00+13св39550 0.0 1012253